When you browse on this site, cookies collect data to enhance your experience and personalize the content and advertising you see.
Visit our Privacy Policy to learn more. By continuing to use the site, you agree to this use of cookies and data.
  • In Lithuania
  • List of Countries
  • For 7 days
  • Water Temperature
  • Weather Map
  • Weather Widgets
  • user-avatar
    Login

    Hourly Weather Bregenz

    Today, 15 September, Sunday

    Time Temperature Precipitation Wind Pressure Humidity
    00:00 +12°C° 0 mm 1 mps 654 mmHg 95%
    01:00 +12°C° 0 mm 1 mps 654 mmHg 95%
    02:00 +11°C° 0 mm 1 mps 654 mmHg 94%
    03:00 +11°C° 0 mm 1 mps 654 mmHg 94%
    04:00 +11°C° 0 mm 1 mps 653 mmHg 93%
    05:00 +11°C° 0 mm 1 mps 653 mmHg 92%
    06:00 +12°C° 0 mm 1 mps 653 mmHg 91%
    07:00 +12°C° 0 mm 1 mps 654 mmHg 89%
    08:00 +14°C° 0 mm 1 mps 654 mmHg 81%
    09:00 +18°C° 0 mm 1 mps 655 mmHg 73%
    10:00 +20°C° 0 mm 1 mps 655 mmHg 65%
    11:00 +21°C° 0 mm 1 mps 655 mmHg 62%
    12:00 +22°C° 0 mm 1 mps 655 mmHg 58%
    13:00 +21°C° 0 mm 2 mps 655 mmHg 55%
    14:00 +22°C° 0 mm 1 mps 655 mmHg 57%
    15:00 +22°C° 0 mm 1 mps 655 mmHg 58%
    16:00 +22°C° 0 mm 1 mps 654 mmHg 60%
    17:00 +20°C° 0 mm 1 mps 653 mmHg 69%
    18:00 +16°C° 0 mm 1 mps 653 mmHg 78%
    19:00 +13°C° 0 mm 0 mps 652 mmHg 87%
    20:00 +14°C° 0 mm 1 mps 652 mmHg 87%
    21:00 +13°C° 0 mm 1 mps 652 mmHg 87%
    22:00 +13°C° 0 mm 1 mps 652 mmHg 86%
    23:00 +12°C° 0 mm 1 mps 652 mmHg 86%

    Tomorrow, 16 September, Monday

    Time Temperature Precipitation Wind Pressure Humidity
    00:00 +12°C° 0 mm 1 mps 652 mmHg 86%
    01:00 +12°C° 0 mm 1 mps 652 mmHg 86%
    02:00 +12°C° 0 mm 1 mps 651 mmHg 86%
    03:00 +12°C° 0 mm 1 mps 651 mmHg 86%
    04:00 +12°C° 0 mm 1 mps 651 mmHg 86%
    05:00 +12°C° 0 mm 1 mps 651 mmHg 85%
    06:00 +12°C° 0 mm 1 mps 651 mmHg 84%
    07:00 +12°C° 0 mm 1 mps 650 mmHg 84%
    08:00 +15°C° 0 mm 1 mps 651 mmHg 77%
    09:00 +18°C° 0 mm 1 mps 652 mmHg 70%
    10:00 +20°C° 0 mm 1 mps 653 mmHg 62%
    11:00 +21°C° 0 mm 1 mps 652 mmHg 60%
    12:00 +22°C° 0 mm 1 mps 652 mmHg 58%
    13:00 +22°C° 0 mm 1 mps 652 mmHg 56%
    14:00 +22°C° 0.2 mm 1 mps 652 mmHg 60%
    15:00 +22°C° 0.2 mm 1 mps 651 mmHg 64%
    16:00 +21°C° 0.2 mm 1 mps 651 mmHg 67%
    17:00 +19°C° 0.3 mm 1 mps 650 mmHg 74%
    18:00 +16°C° 0.3 mm 1 mps 650 mmHg 81%
    19:00 +14°C° 0.3 mm 1 mps 649 mmHg 88%
    20:00 +13°C° 0.1 mm 1 mps 649 mmHg 89%
    21:00 +13°C° 0.1 mm 1 mps 649 mmHg 90%
    22:00 +12°C° 0.1 mm 1 mps 649 mmHg 90%
    23:00 +12°C° 0 mm 1 mps 649 mmHg 91%

    Day after tomorrow, 17 September, Tuesday

    Time Temperature Precipitation Wind Pressure Humidity
    00:00 +12°C° 0 mm 1 mps 649 mmHg 91%
    01:00 +11°C° 0 mm 1 mps 649 mmHg 91%
    02:00 +11°C° 0 mm 1 mps 649 mmHg 91%
    03:00 +11°C° 0 mm 1 mps 648 mmHg 92%
    04:00 +11°C° 0 mm 1 mps 648 mmHg 92%
    05:00 +11°C° 0.2 mm 1 mps 648 mmHg 92%
    06:00 +11°C° 0.2 mm 0 mps 648 mmHg 92%
    07:00 +11°C° 0.2 mm 0 mps 648 mmHg 92%
    08:00 +13°C° 0.2 mm 1 mps 649 mmHg 90%
    09:00 +14°C° 0.2 mm 1 mps 649 mmHg 88%
    10:00 +15°C° 0.2 mm 1 mps 650 mmHg 86%
    11:00 +15°C° 0.2 mm 1 mps 649 mmHg 84%
    12:00 +16°C° 0.2 mm 1 mps 649 mmHg 81%
    13:00 +16°C° 0.2 mm 1 mps 649 mmHg 78%
    14:00 +16°C° 0.1 mm 2 mps 649 mmHg 77%
    15:00 +16°C° 0.1 mm 2 mps 649 mmHg 75%
    16:00 +16°C° 0.1 mm 2 mps 649 mmHg 74%
    17:00 +14°C° 0 mm 2 mps 648 mmHg 81%
    18:00 +13°C° 0 mm 2 mps 648 mmHg 88%
    19:00 +11°C° 0 mm 1 mps 647 mmHg 95%
    20:00 +11°C° 0 mm 1 mps 648 mmHg 95%
    21:00 +10°C° 0 mm 1 mps 648 mmHg 94%
    22:00 +10°C° 0 mm 1 mps 648 mmHg 94%
    23:00 +10°C° 0 mm 1 mps 648 mmHg 94%

    18 September, Wednesday

    Time Temperature Precipitation Wind Pressure Humidity
    00:00 +10°C° 0 mm 1 mps 648 mmHg 94%
    01:00 +9°C° 0 mm 1 mps 648 mmHg 94%
    02:00 +9°C° 0 mm 1 mps 648 mmHg 93%
    03:00 +9°C° 0 mm 1 mps 648 mmHg 92%
    04:00 +8°C° 0 mm 1 mps 648 mmHg 91%
    05:00 +8°C° 0 mm 1 mps 648 mmHg 91%
    06:00 +8°C° 0 mm 1 mps 648 mmHg 91%
    07:00 +7°C° 0 mm 1 mps 648 mmHg 91%
    08:00 +8°C° 0 mm 1 mps 648 mmHg 87%
    09:00 +9°C° 0 mm 1 mps 648 mmHg 84%
    10:00 +10°C° 0 mm 1 mps 649 mmHg 80%
    11:00 +10°C° 0 mm 2 mps 649 mmHg 76%
    12:00 +12°C° 0 mm 2 mps 649 mmHg 72%
    13:00 +14°C° 0 mm 2 mps 649 mmHg 67%
    14:00 +12°C° 0 mm 3 mps 649 mmHg 69%
    15:00 +12°C° 0 mm 3 mps 648 mmHg 70%
    16:00 +11°C° 0 mm 3 mps 648 mmHg 71%
    17:00 +10°C° 0 mm 3 mps 648 mmHg 76%
    18:00 +9°C° 0 mm 2 mps 648 mmHg 81%
    19:00 +7°C° 0 mm 2 mps 648 mmHg 85%
    20:00 +7°C° 0 mm 1 mps 648 mmHg 87%
    21:00 +6°C° 0 mm 1 mps 648 mmHg 90%
    22:00 +5°C° 0 mm 1 mps 648 mmHg 92%
    23:00 +5°C° 0 mm 1 mps 648 mmHg 92%

    19 September, Thursday

    Time Temperature Precipitation Wind Pressure Humidity
    00:00 +3°C° 0 mm 0 mps 648 mmHg 92%
    01:00 +3°C° 0 mm 0 mps 647 mmHg 92%
    02:00 +3°C° 0 mm 0 mps 647 mmHg 93%
    03:00 +3°C° 0 mm 1 mps 647 mmHg 93%
    04:00 +3°C° 0 mm 1 mps 647 mmHg 94%
    05:00 +3°C° 0 mm 1 mps 647 mmHg 93%
    06:00 +3°C° 0 mm 1 mps 647 mmHg 93%
    07:00 +3°C° 0 mm 1 mps 648 mmHg 92%
    08:00 +5°C° 0 mm 1 mps 648 mmHg 85%
    09:00 +5°C° 0 mm 2 mps 649 mmHg 78%
    10:00 +7°C° 0 mm 2 mps 649 mmHg 71%
    11:00 +8°C° 0 mm 3 mps 650 mmHg 66%
    12:00 +9°C° 0 mm 3 mps 650 mmHg 62%
    13:00 +10°C° 0 mm 3 mps 650 mmHg 57%
    14:00 +9°C° 0 mm 3 mps 650 mmHg 59%
    15:00 +9°C° 0 mm 3 mps 650 mmHg 61%
    16:00 +9°C° 0 mm 3 mps 650 mmHg 62%
    17:00 +7°C° 0 mm 3 mps 649 mmHg 70%
    18:00 +5°C° 0 mm 2 mps 649 mmHg 78%
    19:00 +3°C° 0 mm 2 mps 649 mmHg 86%
    20:00 +2°C° 0 mm 2 mps 649 mmHg 88%
    21:00 +3°C° 0 mm 1 mps 649 mmHg 89%
    22:00 +2°C° 0 mm 1 mps 650 mmHg 91%
    23:00 +2°C° 0 mm 1 mps 649 mmHg 91%

    20 September, Friday

    Time Temperature Precipitation Wind Pressure Humidity
    00:00 +2°C° 0 mm 1 mps 649 mmHg 91%
    01:00 +1°C° 0 mm 1 mps 649 mmHg 92%
    02:00 +1°C° 0 mm 1 mps 649 mmHg 92%
    03:00 +1°C° 0 mm 1 mps 649 mmHg 91%
    04:00 +1°C° 0 mm 1 mps 649 mmHg 91%
    05:00 +1°C° 0 mm 1 mps 649 mmHg 90%
    06:00 +2°C° 0 mm 1 mps 649 mmHg 88%
    07:00 +2°C° 0 mm 1 mps 649 mmHg 86%
    08:00 +4°C° 0 mm 1 mps 650 mmHg 76%
    09:00 +7°C° 0 mm 1 mps 651 mmHg 66%
    10:00 +8°C° 0 mm 2 mps 652 mmHg 56%
    11:00 +9°C° 0 mm 2 mps 652 mmHg 53%
    12:00 +10°C° 0 mm 3 mps 652 mmHg 49%
    13:00 +11°C° 0 mm 3 mps 652 mmHg 46%
    14:00 +11°C° 0 mm 3 mps 652 mmHg 48%
    15:00 +11°C° 0 mm 3 mps 652 mmHg 51%
    16:00 +11°C° 0 mm 3 mps 651 mmHg 53%
    17:00 +8°C° 0 mm 2 mps 651 mmHg 63%
    18:00 +6°C° 0 mm 2 mps 650 mmHg 73%
    19:00 +4°C° 0 mm 1 mps 649 mmHg 83%
    20:00 +4°C° 0 mm 1 mps 650 mmHg 83%
    21:00 +3°C° 0 mm 1 mps 650 mmHg 84%
    22:00 +3°C° 0 mm 1 mps 650 mmHg 84%
    23:00 +3°C° 0 mm 1 mps 650 mmHg 84%
    Show more